FW4751 Weather Reports


time (UTC)temp
C
wind
direction
speed
KPH
gust
KPH
rain 1hr
cm
rain 24hr
cm
rain mn
cm
humidity
%
barometer
mb
20260507195504 17 45 3.2 9.7 0.00 0.00 0.00 72 1019.3
20260507195004 18 45 3.2 6.4 0.00 0.00 0.00 72 1019.4
20260507194503 17 45 4.8 9.7 0.00 0.00 0.00 72 1019.3
20260507194003 18 45 3.2 12.9 0.00 0.00 0.00 71 1019.4
20260507193503 18 45 4.8 11.3 0.00 0.00 0.00 71 1019.4
20260507193003 18 45 3.2 8.0 0.00 0.00 0.00 71 1019.5
20260507192503 18 45 3.2 8.0 0.00 0.00 0.00 72 1019.5
20260507192004 17 45 3.2 8.0 0.00 0.00 0.00 73 1019.5
20260507191503 17 45 3.2 9.7 0.00 0.00 0.00 74 1019.6
20260507191004 17 45 3.2 8.0 0.00 0.00 0.00 74 1019.6
20260507190523 17 68 3.2 8.0 0.00 0.00 0.00 75 1019.8
20260507190004 17 113 1.6 6.4 0.00 0.00 0.00 77 1019.7
20260507185503 16 68 3.2 6.4 0.00 0.00 0.00 77 1019.8
20260507185003 16 45 3.2 4.8 0.00 0.00 0.00 78 1019.8
20260507184504 16 45 3.2 8.0 0.00 0.00 0.00 78 1019.8
20260507184003 16 45 3.2 9.7 0.00 0.00 0.00 78 1019.9
20260507183503 16 45 3.2 9.7 0.00 0.00 0.00 78 1019.9
20260507183003 16 68 3.2 6.4 0.00 0.00 0.00 78 1020.0
20260507182503 16 68 1.6 4.8 0.00 0.00 0.00 78 1020.0
20260507182023 16 45 3.2 6.4 0.00 0.00 0.00 78 1020.0
20260507181503 16 68 1.6 6.4 0.00 0.00 0.00 78 1019.9
20260507181003 16 45 1.6 4.8 0.00 0.00 0.00 78 1019.9
20260507180503 16 45 1.6 3.2 0.00 0.00 0.00 79 1019.9
20260507180003 16 45 1.6 4.8 0.00 0.00 0.00 79 1019.9
20260507175503 16 0.0 3.2 0.00 0.00 0.00 80 1019.9
20260507175003 16 45 1.6 4.8 0.00 0.00 0.00 80 1019.9
20260507174523 15 225 1.6 3.2 0.00 0.00 0.00 81 1019.8
20260507174003 15 293 1.6 3.2 0.00 0.00 0.00 81 1019.9
20260507173503 15 225 1.6 3.2 0.00 0.00 0.00 81 1020.0
20260507173004 15 293 1.6 3.2 0.00 0.00 0.00 82 1019.9
20260507172503 15 90 1.6 3.2 0.00 0.00 0.00 82 1019.9
20260507172023 15 315 1.6 3.2 0.00 0.00 0.00 83 1019.9
20260507171504 15 315 1.6 3.2 0.00 0.00 0.00 83 1019.8
20260507171003 15 315 1.6 3.2 0.00 0.00 0.00 84 1019.8
20260507170503 14 135 1.6 3.2 0.00 0.00 0.00 84 1019.8
20260507170003 14 135 1.6 3.2 0.00 0.00 0.00 84 1019.8
20260507165523 14 113 1.6 4.8 0.00 0.00 0.00 85 1019.9
20260507165023 14 113 1.6 4.8 0.00 0.00 0.00 85 1019.9
20260507164503 14 135 1.6 4.8 0.00 0.00 0.00 84 1019.7
20260507164008 14 135 1.6 3.2 0.00 0.00 0.00 85 1019.9
20260507163503 13 45 1.6 3.2 0.00 0.00 0.00 86 1019.8
20260507163003 13 45 1.6 3.2 0.00 0.00 0.00 86 1019.8
20260507162503 13 0 1.6 4.8 0.00 0.00 0.00 86 1019.9
20260507162003 13 45 1.6 4.8 0.00 0.00 0.00 86 1019.9
20260507161503 13 45 1.6 3.2 0.00 0.00 0.00 86 1019.8
20260507161003 13 45 1.6 3.2 0.00 0.00 0.00 86 1019.9
20260507160503 13 113 1.6 3.2 0.00 0.00 0.00 87 1019.9
20260507160003 13 0.0 3.2 0.00 0.00 0.00 87 1019.8
20260507155503 13 0 1.6 3.2 0.00 0.00 0.00 87 1019.8
20260507155003 13 270 1.6 3.2 0.00 0.00 0.00 87 1019.9
20260507154503 13 270 1.6 1.6 0.00 0.00 0.00 87 1019.9
20260507154003 13 45 1.6 3.2 0.00 0.00 0.00 87 1019.9
20260507153504 13 45 1.6 4.8 0.00 0.00 0.00 87 1019.8
20260507153002 13 0.0 1.6 0.00 0.00 0.00 87 1019.8
20260507152503 13 45 1.6 4.8 0.00 0.00 0.00 87 1019.7
20260507152005 13 0.0 3.2 0.00 0.00 0.00 87 1019.8
20260507151505 13 0.0 3.2 0.00 0.00 0.00 87 1019.8
20260507151005 13 0 1.6 3.2 0.00 0.00 0.00 87 1019.8
20260507150503 13 68 1.6 3.2 0.00 0.00 0.00 87 1019.7
20260507150006 13 0.0 3.2 0.00 0.00 0.00 87 1019.8
20260507145504 13 315 1.6 3.2 0.00 0.00 0.00 87 1019.7
20260507145025 13 0.0 1.6 0.00 0.00 0.00 87 1019.8
20260507144505 13 45 1.6 3.2 0.00 0.00 0.00 86 1019.8
20260507144005 13 338 1.6 4.8 0.00 0.00 0.00 86 1019.8
20260507143505 13 338 1.6 4.8 0.00 0.00 0.00 86 1019.8
20260507143005 13 45 1.6 3.2 0.00 0.00 0.00 86 1019.8
20260507142531 13 0 1.6 3.2 0.00 0.00 0.00 86 1019.7
20260507142025 13 45 1.6 3.2 0.00 0.00 0.00 86 1019.7
20260507141504 13 0 1.6 4.8 0.00 0.00 0.00 86 1019.6
20260507141004 13 45 1.6 4.8 0.00 0.00 0.00 86 1019.6
20260507140504 13 45 1.6 4.8 0.00 0.00 0.00 86 1019.6
20260507140006 13 0.0 3.2 0.00 0.00 0.00 86 1019.4
20260507135505 13 45 1.6 3.2 0.00 0.00 0.00 86 1019.5
20260507135005 13 45 1.6 4.8 0.00 0.00 0.00 86 1019.5
20260507134505 13 338 1.6 4.8 0.00 0.00 0.00 86 1019.5
20260507134005 13 45 1.6 6.4 0.00 0.00 0.00 86 1019.5
20260507133505 13 0 1.6 4.8 0.00 0.00 0.00 86 1019.5
20260507133004 13 45 1.6 4.8 0.00 0.00 0.00 86 1019.4
20260507132505 13 0 1.6 3.2 0.00 0.00 0.00 86 1019.3
20260507132025 13 45 1.6 3.2 0.00 0.00 0.00 86 1019.3
20260507131505 13 45 1.6 4.8 0.00 0.00 0.00 86 1019.2
20260507131005 13 45 3.2 6.4 0.00 0.00 0.00 86 1019.3
20260507130505 13 45 1.6 3.2 0.00 0.00 0.00 86 1019.3
20260507130005 13 45 1.6 6.4 0.00 0.00 0.00 86 1019.2
20260507125504 13 68 1.6 3.2 0.00 0.00 0.00 86 1019.3
20260507125004 13 0.0 3.2 0.00 0.00 0.00 86 1019.1
20260507124504 13 45 1.6 4.8 0.00 0.00 0.00 86 1019.2
20260507124004 13 45 1.6 4.8 0.00 0.00 0.00 86 1019.1
20260507123505 13 338 1.6 4.8 0.00 0.00 0.00 86 1019.1
20260507123005 13 45 1.6 4.8 0.00 0.00 0.00 86 1019.1
20260507122504 13 45 1.6 3.2 0.00 0.00 0.00 86 1019.2
20260507122005 13 338 1.6 4.8 0.00 0.00 0.00 87 1019.2
20260507121505 13 45 1.6 4.8 0.00 0.00 0.00 87 1019.1
20260507121004 13 45 1.6 3.2 0.00 0.00 0.00 87 1019.2
20260507120525 13 0 1.6 4.8 0.00 0.00 0.00 87 1019.2
20260507120005 13 0 1.6 3.2 0.00 0.00 0.00 87 1019.2
20260507115504 13 45 1.6 4.8 0.00 0.00 0.00 87 1019.3
20260507115025 13 0 1.6 4.8 0.00 0.00 0.00 87 1019.3
20260507114504 13 0.0 3.2 0.00 0.00 0.00 87 1019.4
20260507114004 13 45 1.6 4.8 0.00 0.00 0.00 87 1019.4
20260507113504 13 45 1.6 4.8 0.00 0.00 0.00 86 1019.4
20260507113005 13 0 1.6 4.8 0.00 0.00 0.00 87 1019.5
20260507112505 13 0 1.6 3.2 0.00 0.00 0.00 87 1019.4
20260507112026 13 0 1.6 4.8 0.00 0.00 0.00 87 1019.4
20260507111506 13 0 1.6 3.2 0.00 0.00 0.00 87 1019.4
20260507111004 13 0 1.6 4.8 0.00 0.00 0.00 86 1019.4
20260507110524 13 45 1.6 4.8 0.00 0.00 0.00 86 1019.4
20260507110005 13 45 1.6 3.2 0.00 0.00 0.00 86 1019.4
20260507105504 13 45 1.6 3.2 0.00 0.00 0.00 86 1019.4
20260507105005 13 0.0 1.6 0.00 0.00 0.00 86 1019.5
20260507104505 13 0.0 3.2 0.00 0.00 0.00 86 1019.5
20260507104004 13 0 1.6 3.2 0.00 0.00 0.00 86 1019.5
20260507103504 13 338 1.6 4.8 0.00 0.00 0.00 86 1019.5
20260507103004 13 0 1.6 4.8 0.00 0.00 0.00 86 1019.5
20260507102504 13 0 1.6 3.2 0.00 0.00 0.00 86 1019.6
20260507102024 13 338 1.6 4.8 0.00 0.00 0.00 86 1019.4
20260507101504 13 0 1.6 3.2 0.00 0.00 0.00 86 1019.6
20260507101004 13 0 1.6 3.2 0.00 0.00 0.00 86 1019.5
20260507100504 13 0 1.6 3.2 0.00 0.00 0.00 86 1019.3
20260507100005 13 338 1.6 4.8 0.00 0.00 0.00 86 1019.4
20260507095524 13 338 1.6 4.8 0.00 0.00 0.00 86 1019.4
20260507095004 13 0 1.6 6.4 0.00 0.00 0.00 86 1019.4
20260507094504 13 0 1.6 4.8 0.00 0.00 0.00 86 1019.4
20260507094005 13 0 3.2 6.4 0.00 0.00 0.00 86 1019.5
20260507093504 13 0 1.6 4.8 0.00 0.00 0.00 86 1019.5
20260507093004 13 45 1.6 4.8 0.00 0.00 0.00 86 1019.6
20260507092504 13 45 1.6 4.8 0.00 0.00 0.00 86 1019.6
20260507092004 13 0 1.6 3.2 0.00 0.00 0.00 87 1019.6
20260507091504 13 0 1.6 4.8 0.00 0.00 0.00 87 1019.6
20260507091004 13 0 1.6 3.2 0.00 0.00 0.00 87 1019.7
20260507090504 13 0 1.6 3.2 0.00 0.00 0.00 86 1019.7
20260507090005 13 0 1.6 3.2 0.00 0.00 0.00 86 1019.8
20260507085504 13 0.0 3.2 0.00 0.00 0.00 86 1019.7
20260507085004 13 0.0 3.2 0.00 0.00 0.00 86 1019.9
20260507084504 13 0.0 1.6 0.00 0.00 0.00 86 1019.8
20260507084004 13 0.0 1.6 0.00 0.00 0.00 86 1019.8
20260507083504 13 0.0 1.6 0.00 0.00 0.00 86 1019.7
20260507083024 13 0.0 1.6 0.00 0.00 0.00 86 1019.9
20260507082504 13 203 1.6 4.8 0.00 0.00 0.00 86 1019.8
20260507082024 13 158 1.6 4.8 0.00 0.00 0.00 86 1019.8
20260507081505 13 180 1.6 3.2 0.00 0.00 0.00 86 1019.8
20260507081004 13 23 1.6 3.2 0.00 0.00 0.00 86 1019.9
20260507080504 13 0.0 1.6 0.00 0.00 0.00 85 1019.8
20260507080024 13 0.0 1.6 0.00 0.00 0.00 85 1019.9
20260507075524 13 0.0 1.6 0.00 0.00 0.00 85 1019.9
20260507075004 13 0.0 3.2 0.00 0.00 0.00 85 1019.9
20260507074504 13 0.0 3.2 0.00 0.00 0.00 85 1019.9
20260507074004 13 0.0 1.6 0.00 0.00 0.00 85 1019.8
20260507073504 13 0.0 3.2 0.00 0.00 0.00 85 1019.7
20260507073004 13 0.0 1.6 0.00 0.00 0.00 85 1019.8
20260507072524 13 0.0 3.2 0.00 0.00 0.00 85 1019.8
20260507072003 13 0.0 1.6 0.00 0.00 0.00 84 1019.9
20260507071504 13 0.0 3.2 0.00 0.00 0.00 84 1019.9
20260507071023 13 45 1.6 3.2 0.00 0.00 0.00 84 1019.8
20260507070504 13 0.0 3.2 0.00 0.00 0.00 84 1019.9
20260507070010 13 0.0 1.6 0.00 0.00 0.00 84 1019.8
20260507065504 13 0.0 3.2 0.00 0.00 0.00 84 1019.9
20260507065003 13 0.0 1.6 0.00 0.00 0.00 84 1019.9
20260507064504 13 45 1.6 4.8 0.00 0.00 0.00 84 1020.0
20260507064004 13 45 1.6 3.2 0.00 0.00 0.00 84 1020.0
20260507063524 13 45 1.6 4.8 0.00 0.00 0.00 85 1019.9
20260507063003 13 0.0 4.8 0.00 0.00 0.00 85 1019.9
20260507062504 13 45 1.6 4.8 0.00 0.00 0.00 85 1019.9
20260507062003 13 45 1.6 3.2 0.00 0.00 0.00 85 1019.9
20260507061503 13 45 1.6 3.2 0.00 0.00 0.00 85 1020.0
20260507061004 13 45 1.6 3.2 0.00 0.00 0.00 85 1020.0
20260507060504 13 45 1.6 3.2 0.00 0.00 0.00 85 1019.9
20260507060004 13 0.0 3.2 0.00 0.00 0.00 85 1020.0
20260507055503 13 45 1.6 3.2 0.00 0.00 0.00 85 1019.9
20260507055004 13 0.0 3.2 0.00 0.00 0.00 85 1020.0
20260507054504 13 0.0 1.6 0.00 0.00 0.00 85 1019.9
20260507054003 13 0.0 1.6 0.00 0.00 0.00 84 1019.9
20260507053603 13 0.0 1.6 0.00 0.00 0.00 84 1020.0
20260507053023 13 0.0 1.6 0.00 0.00 0.00 83 1019.9
20260507052503 13 0.0 1.6 0.00 0.00 0.00 83 1019.9
20260507052004 13 0.0 1.6 0.00 0.00 0.00 83 1020.0
20260507051504 13 0.0 3.2 0.00 0.00 0.00 83 1019.9
20260507051003 14 0 1.6 3.2 0.00 0.00 0.00 82 1019.9
20260507050503 14 0.0 1.6 0.00 0.00 0.00 82 1019.9
20260507050004 14 0.0 3.2 0.00 0.00 0.00 82 1020.0
20260507045503 14 0.0 3.2 0.00 0.00 0.00 82 1019.9
20260507045003 14 0.0 3.2 0.00 0.00 0.00 81 1019.9
20260507044504 14 45 1.6 3.2 0.00 0.00 0.00 81 1019.9
20260507044003 14 45 1.6 3.2 0.00 0.00 0.00 81 1020.0
20260507043503 14 45 1.6 6.4 0.00 0.00 0.00 81 1019.9
20260507043004 14 45 1.6 4.8 0.00 0.00 0.00 80 1019.8
20260507042503 14 45 1.6 6.4 0.00 0.00 0.00 80 1019.8
20260507042003 15 45 1.6 4.8 0.00 0.00 0.00 80 1019.7
20260507041503 15 45 1.6 4.8 0.00 0.00 0.00 79 1019.8
20260507041003 15 45 3.2 8.0 0.00 0.00 0.00 79 1019.6
20260507040503 15 338 3.2 6.4 0.00 0.00 0.00 78 1019.5
20260507040003 15 45 1.6 11.3 0.00 0.00 0.00 78 1019.4
20260507035503 15 338 3.2 8.0 0.00 0.00 0.00 78 1019.4
20260507035003 15 338 3.2 8.0 0.00 0.00 0.00 77 1019.4
20260507034503 15 338 3.2 11.3 0.00 0.00 0.00 77 1019.4
20260507034023 15 0 4.8 12.9 0.00 0.00 0.00 77 1019.3
20260507033503 16 45 3.2 9.7 0.00 0.00 0.00 76 1019.3
20260507033003 16 45 3.2 9.7 0.00 0.00 0.00 76 1019.2
20260507032504 16 45 3.2 8.0 0.00 0.00 0.00 75 1019.0
20260507032003 16 45 3.2 8.0 0.00 0.00 0.00 75 1019.0
20260507031503 16 45 3.2 9.7 0.00 0.00 0.00 74 1018.9
20260507031003 16 338 3.2 8.0 0.00 0.00 0.00 74 1018.9
20260507030503 17 23 3.2 9.7 0.00 0.00 0.00 73 1018.7
20260507030003 17 338 3.2 9.7 0.00 0.00 0.00 73 1018.8
20260507025504 17 23 3.2 8.0 0.00 0.00 0.00 72 1018.7
20260507025003 17 45 3.2 11.3 0.00 0.00 0.00 72 1018.6
20260507024503 17 45 3.2 8.0 0.00 0.00 0.00 71 1018.4
20260507024003 18 45 3.2 11.3 0.00 0.00 0.00 70 1018.2
20260507023503 18 45 3.2 8.0 0.00 0.00 0.00 70 1018.2
20260507023003 18 45 3.2 9.7 0.00 0.00 0.00 69 1018.4
20260507022523 18 0 3.2 9.7 0.00 0.00 0.00 68 1018.3
20260507022023 19 338 4.8 11.3 0.00 0.00 0.00 68 1018.3
20260507021503 19 338 3.2 9.7 0.00 0.00 0.00 67 1018.2
20260507021003 19 338 4.8 11.3 0.00 0.00 0.00 67 1018.1
20260507020523 20 338 4.8 11.3 0.00 0.00 0.00 66 1018.1
20260507020003 20 45 4.8 11.3 0.00 0.00 0.00 66 1018.2
20260507015503 20 45 4.8 11.3 0.00 0.00 0.00 65 1018.3
20260507015003 20 45 4.8 9.7 0.00 0.00 0.00 65 1018.1
20260507014503 20 45 4.8 9.7 0.00 0.00 0.00 66 1018.2
20260507014003 21 45 3.2 8.0 0.00 0.00 0.00 66 1018.1
20260507013503 21 45 3.2 8.0 0.00 0.00 0.00 67 1018.1
20260507013004 21 45 4.8 12.9 0.00 0.00 0.00 66 1018.1
20260507012503 21 45 4.8 11.3 0.00 0.00 0.00 65 1018.0
20260507012003 21 45 4.8 8.0 0.00 0.00 0.00 64 1018.0
20260507011503 22 45 4.8 11.3 0.00 0.00 0.00 63 1018.0
20260507011023 22 45 3.2 11.3 0.00 0.00 0.00 63 1017.9
20260507010503 22 45 4.8 12.9 0.00 0.00 0.00 61 1018.1
20260507010003 22 0 4.8 9.7 0.00 0.00 0.00 61 1018.2
20260507005505 22 0 4.8 11.3 0.00 0.00 0.00 60 1018.0
20260507005005 22 0 4.8 11.3 0.00 0.00 0.00 61 1018.2
20260507004505 22 45 4.8 9.7 0.00 0.00 0.00 61 1018.1
20260507004004 22 45 4.8 16.1 0.00 0.00 0.00 60 1018.1
20260507003505 23 45 4.8 12.9 0.00 0.00 0.00 60 1018.0
20260507003005 23 45 4.8 9.7 0.00 0.00 0.00 57 1018.0
20260507002505 23 338 3.2 9.7 0.00 0.00 0.00 57 1018.0
20260507002005 23 338 4.8 16.1 0.00 0.00 0.00 56 1018.0
20260507001505 23 45 4.8 11.3 0.00 0.00 0.00 55 1018.0
20260507001005 23 338 3.2 8.0 0.00 0.00 0.00 55 1018.0
20260507000505 23 338 4.8 12.9 0.00 0.00 0.00 55 1018.0
20260507000005 23 338 4.8 14.5 0.00 0.00 0.00 55 1018.1
20260506235505 22 0 6.4 12.9 0.00 0.00 0.00 55 1018.0
20260506235005 23 45 4.8 12.9 0.00 0.00 0.00 54 1018.1
20260506234505 23 338 4.8 14.5 0.00 0.00 0.00 54 1018.0
20260506234025 23 338 4.8 12.9 0.00 0.00 0.00 55 1018.0
20260506233505 23 45 4.8 11.3 0.00 0.00 0.00 56 1018.1
20260506233005 23 338 4.8 11.3 0.00 0.00 0.00 56 1018.1
20260506232525 22 45 4.8 14.5 0.00 0.00 0.00 56 1018.1
20260506232005 23 338 4.8 14.5 0.00 0.00 0.00 55 1018.3
20260506231505 23 338 4.8 12.9 0.00 0.00 0.00 55 1018.2
20260506231005 23 45 4.8 12.9 0.00 0.00 0.00 54 1018.3
20260506230505 23 338 3.2 11.3 0.00 0.00 0.00 56 1018.2
20260506230005 22 45 4.8 14.5 0.00 0.00 0.00 57 1018.4
20260506225504 22 45 4.8 11.3 0.00 0.00 0.00 57 1018.5
20260506225005 22 45 4.8 12.9 0.00 0.00 0.00 57 1018.5
20260506224505 22 45 4.8 12.9 0.00 0.00 0.00 58 1018.5
20260506224005 22 45 4.8 12.9 0.00 0.00 0.00 58 1018.7
20260506223504 22 45 4.8 11.3 0.00 0.00 0.00 58 1018.6
20260506223025 22 45 6.4 12.9 0.00 0.00 0.00 58 1018.6
20260506222525 22 45 6.4 16.1 0.00 0.00 0.00 57 1018.7
20260506222005 23 0 4.8 14.5 0.00 0.00 0.00 57 1018.8
20260506221505 22 45 4.8 14.5 0.00 0.00 0.00 58 1018.8
20260506221004 22 45 4.8 12.9 0.00 0.00 0.00 58 1018.8
20260506220505 22 45 4.8 9.7 0.00 0.00 0.00 58 1019.0
20260506220005 22 45 4.8 11.3 0.00 0.00 0.00 58 1018.9
20260506215504 22 23 4.8 12.9 0.00 0.00 0.00 57 1019.0
20260506215005 22 45 6.4 11.3 0.00 0.00 0.00 57 1019.1
20260506214504 23 45 4.8 12.9 0.00 0.00 0.00 57 1019.1
20260506214024 23 45 3.2 8.0 0.00 0.00 0.00 56 1019.1
20260506213504 22 338 3.2 9.7 0.00 0.00 0.00 58 1019.1
20260506213004 22 45 4.8 9.7 0.00 0.00 0.00 58 1019.2
20260506212504 22 45 4.8 12.9 0.00 0.00 0.00 58 1019.4
20260506212004 22 45 4.8 9.7 0.00 0.00 0.00 59 1019.3
20260506211505 22 45 4.8 9.7 0.00 0.00 0.00 58 1019.4
20260506211004 22 338 3.2 9.7 0.00 0.00 0.00 59 1019.5
20260506210504 22 45 3.2 9.7 0.00 0.00 0.00 59 1019.5
20260506210004 22 68 4.8 9.7 0.00 0.00 0.00 59 1019.5
20260506205504 22 45 3.2 9.7 0.00 0.00 0.00 61 1019.6
20260506205005 21 45 4.8 11.3 0.00 0.00 0.00 60 1019.6
20260506204504 22 68 4.8 11.3 0.00 0.00 0.00 60 1019.7
20260506204004 22 45 3.2 8.0 0.00 0.00 0.00 61 1019.7
20260506203504 22 68 3.2 12.9 0.00 0.00 0.00 61 1019.7
20260506203004 22 45 3.2 11.3 0.00 0.00 0.00 61 1019.8
20260506202505 21 45 3.2 11.3 0.00 0.00 0.00 61 1019.9
20260506202004 21 338 1.6 6.4 0.00 0.00 0.00 61 1020.1
20260506201504 21 45 3.2 9.7 0.00 0.00 0.00 60 1020.2
20260506201004 21 338 3.2 11.3 0.00 0.00 0.00 60 1020.1
20260506200504 21 45 3.2 11.3 0.00 0.00 0.00 61 1020.2
20260506200005 21 68 3.2 9.7 0.00 0.00 0.00 61 1020.4